McCook, NE

1:50 PM CDT on September 26, 2017 (GMT -0500)
McCook Municipal

Weather History for KMCK - March, 2011

Change the Weather History Date:

Thursday, March 24, 2011

  Actual Average Record
Temperature  
Mean Temperature 31 °F 42 °F  
Max Temperature 46 °F 57 °F 85 °F (1967)
Min Temperature 15 °F 27 °F 4 °F (1965)
Degree Days  
Heating Degree Days 34    
Moisture  
Dew Point 22 °F    
Average Humidity 69    
Maximum Humidity 92    
Minimum Humidity 39    
Precipitation  
Precipitation 0.01 in 0.05 in 1.57 in (1962)
Month to date precipitation 0.21 1.01  
Year to date precipitation 0.66 2.14  
Sea Level Pressure  
Sea Level Pressure 30.06 in    
Wind  
Wind Speed 10 mph (ESE)    
Max Wind Speed 24 mph    
Max Gust Speed 36 mph    
Visibility 9 miles    
Events Snow , Thunderstorm    
T = Trace of Precipitation, MM = Missing Value Source: NWS Daily Summary

Daily Weather History Graph

Daily Weather History Graph

Search for Another Location

Airport or City:

Trip Planner

Search our weather history database for the weather conditions in past years. The results will help you decide how hot, cold, wet, or windy it might be!

Date:

Astronomy

Mar. 24, 2011 Rise Set
Actual Time 7:39 AM CDT 7:58 PM CDT
Civil Twilight 7:12 AM CDT 8:25 PM CDT
Nautical Twilight 6:40 AM CDT 8:57 PM CDT
Astronomical Twilight 6:08 AM CDT 9:30 PM CDT
Moon 1:14 AM CDT (3/24) 10:43 AM CDT (3/24)
Length of Visible Light 13h 13m
Length of Day
12h 18m
Waning Gibbous, 69% of the Moon is Illuminated
Mar 24
Waning Gibbous
Mar 26
Last Quarter
Apr 3
New
Apr 11
First Quarter
Apr 17
Full

Hourly Weather History & Observations

Time (CDT) Temp. Windchill Dew Point Humidity Pressure Visibility Wind Dir Wind Speed Gust Speed Precip Events Conditions
12:53 AM 23.0 °F 14.7 °F 19.0 °F 85% 30.20 in 10.0 mi NNE 6.9 mph - N/A   Clear
1:53 AM 21.9 °F 12.5 °F 18.0 °F 85% 30.21 in 10.0 mi NNE 8.1 mph - N/A   Clear
2:53 AM 21.0 °F 11.4 °F 18.0 °F 88% 30.20 in 10.0 mi NNE 8.1 mph - N/A   Clear
3:53 AM 21.9 °F 17.2 °F 18.0 °F 85% 30.22 in 10.0 mi ENE 3.5 mph - N/A   Clear
4:53 AM 18.0 °F 12.7 °F 15.1 °F 88% 30.21 in 10.0 mi ENE 3.5 mph - N/A   Clear
5:53 AM 19.0 °F 13.9 °F 17.1 °F 92% 30.22 in 10.0 mi East 3.5 mph - N/A   Clear
6:53 AM 17.1 °F 10.0 °F 14.0 °F 88% 30.22 in 10.0 mi ENE 4.6 mph - N/A   Clear
7:53 AM 17.1 °F - 15.1 °F 92% 30.26 in 10.0 mi Calm Calm - N/A   Clear
8:53 AM 21.9 °F 15.7 °F 18.0 °F 85% 30.26 in 10.0 mi SE 4.6 mph - N/A   Clear
9:53 AM 26.1 °F 15.6 °F 19.9 °F 78% 30.25 in 10.0 mi SE 11.5 mph - N/A   Scattered Clouds
10:08 AM 26.6 °F 17.5 °F 19.4 °F 74% 30.16 in 10.0 mi ESE 9.2 mph - N/A   Mostly Cloudy
10:24 AM 28.4 °F 19.1 °F 19.4 °F 69% 30.15 in 10.0 mi SE 10.4 mph - N/A   Scattered Clouds
10:53 AM 28.9 °F 19.8 °F 19.9 °F 69% 30.22 in 10.0 mi East 10.4 mph - N/A   Partly Cloudy
11:53 AM 35.1 °F 26.4 °F 21.0 °F 57% 30.20 in 10.0 mi SE 12.7 mph - N/A   Clear
12:53 PM 39.0 °F 31.0 °F 21.0 °F 49% 30.14 in 10.0 mi SE 13.8 mph 19.6 mph N/A   Clear
1:53 PM 42.1 °F 34.5 °F 21.0 °F 43% 30.07 in 10.0 mi SE 15.0 mph 26.5 mph N/A   Clear
2:53 PM 45.0 °F 37.1 °F 21.9 °F 40% 29.99 in 10.0 mi SE 19.6 mph 26.5 mph N/A   Clear
3:53 PM 44.1 °F 35.9 °F 21.9 °F 42% 29.92 in 10.0 mi SE 19.6 mph 28.8 mph N/A   Partly Cloudy
4:53 PM 46.0 °F 37.6 °F 21.9 °F 39% 29.87 in 10.0 mi SE 24.2 mph 35.7 mph N/A   Clear
5:53 PM 45.0 °F 36.9 °F 23.0 °F 42% 29.90 in 10.0 mi SSE 20.7 mph 28.8 mph N/A   Scattered Clouds
6:53 PM 43.0 °F 35.1 °F 23.0 °F 45% 29.89 in 10.0 mi SE 17.3 mph 26.5 mph N/A   Clear
7:53 PM 41.0 °F 32.5 °F 24.1 °F 51% 29.88 in 10.0 mi ESE 17.3 mph - N/A   Clear
8:53 PM 39.0 °F 30.6 °F 25.0 °F 57% 29.88 in 10.0 mi East 15.0 mph - N/A   Mostly Cloudy
9:26 PM 39.2 °F 29.8 °F 24.8 °F 56% 29.82 in 7.0 mi East 18.4 mph - N/A Thunderstorm Overcast
9:35 PM 35.6 °F 24.5 °F 28.4 °F 75% 29.80 in 2.0 mi ESE 20.7 mph 28.8 mph 0.01 in Snow Light Snow
9:46 PM 35.6 °F 28.6 °F 28.4 °F 75% 29.84 in 5.0 mi East 9.2 mph - N/A   Overcast
9:53 PM 36.0 °F 27.5 °F 28.9 °F 76% 29.91 in 5.0 mi East 12.7 mph 18.4 mph 0.01 in   Haze
10:53 PM 35.1 °F 27.4 °F 28.9 °F 78% 29.94 in 7.0 mi East 10.4 mph - N/A   Mostly Cloudy
11:53 PM 34.0 °F 26.6 °F 30.0 °F 85% 29.92 in 8.0 mi East 9.2 mph - N/A   Clear